Overview Statistics Trail Chart Weather Telemetry Raw packets
 

This is the latest recevied weather packets stored in our database for station/object G4WLC-1. If no packets are shown the sender has not sent any weather packets the latest 10 day(s).

<< 57 58 59 60 61 62 63 >>
Time Temp. Humidity Pressure Rain* Wind** Luminosity Snow
1788273430 18.89° C 70% 1020.3 hPa 0 mm - - -
1788273130 18.89° C 71% 1020.4 hPa 0 mm - - -
1788272830 18.89° C 71% 1020.5 hPa 0 mm - - -
1788272530 18.89° C 72% 1020.6 hPa 0 mm - - -
1788272230 18.33° C 73% 1020.5 hPa 0 mm - - -
1788271930 18.33° C 73% 1020.6 hPa 0 mm - - -
1788271630 18.33° C 72% 1020.7 hPa 0 mm - - -
1788271330 18.33° C 72% 1020.7 hPa 0 mm - - -
1788271030 18.33° C 71% 1020.8 hPa 0 mm - - -
1788270730 18.89° C 69% 1020.8 hPa 0 mm - - -
1788270430 18.89° C 70% 1020.8 hPa 0 mm - - -
1788270130 18.89° C 72% 1020.7 hPa 0 mm - - -
1788269830 19.44° C 71% 1020.7 hPa 0 mm - - -
1788269530 19.44° C 71% 1020.7 hPa 0 mm - - -
1788269230 19.44° C 69% 1020.7 hPa 0 mm - - -
1788268951 20° C 69% 1020.6 hPa 0 mm - - -
1788268630 20° C 68% 1020.6 hPa 0 mm - - -
1788268330 20° C 70% 1020.4 hPa 0 mm - - -
1788268030 20° C 67% 1020.6 hPa 0 mm - - -
1788267730 20.56° C 69% 1020.7 hPa 0 mm - - -
1788267430 20° C 73% 1020.5 hPa 0 mm - - -
1788267130 20° C 72% 1020.4 hPa 0 mm - - -
1788266830 20° C 71% 1020.5 hPa 0 mm - - -
1788266530 20° C 70% 1020.7 hPa 0 mm - - -
1788266230 20° C 71% 1020.4 hPa 0 mm - - -

* Rain latest hour (hover to see other rain measurements)
** Current wind speed in m/s (hover to see current wind gust speed)